User: anonymous   Login
Location: Caltech
(34.1382°N, 118.1253°W)
Time: 06:08:47
(UTC-07:00)
Language:

Cosmos 1733 Rocket - Orbit

View from above orbital plane
View from above orbital plane
View from above satellite
View from above satellite

Ground track
Ground track

The orbit data is extracted from the following two-line orbital elements,

1 16612U 86018B   15111.11598287  .00000685  00000-0  79561-4 0  9990
2 16612 082.5150 315.7082 0016606 230.8135 250.4356 14.83888436474571
Epoch (UTC): 21 April 2015 02:47:00
Eccentricity: 0.0016606
inclination: 82.5150°
perigee height: 605 km
apogee height: 628 km
right ascension of ascending node: 315.7082°
argument of perigee: 230.8135°
revolutions per day: 14.83888436
mean anomaly at epoch: 250.4356°
orbit number at epoch: 47457

The dashed part of the orbit path shows where the satellite is in the earth's shadow,  

DLR